Location: Allie Creek
(37.5926°N, 89.8526°W)
Time: 05:27:19
(UTC+00:00)

SL-08 R/B - Pass Details

Date: 26 September 2023
Orbit: 670 x 736 km, 98.5° (Epoch: 29 November)

Event Time Altitude Azimuth Distance (km) Brightness Sun altitude
Rises 00:29:51 0° 7° (N) 3,172 6.7 -8.3°
Reaches altitude 10° 00:32:11 10° 3° (N) 2,248 6.0 -8.8°
Maximum altitude 00:36:59 53° 287° (WNW) 900 4.3 -9.7°
Drops below altitude 10° 00:41:46 10° 211° (SSW) 2,230 6.2 -10.7°
Sets 00:44:04 0° 207° (SSW) 3,143 6.9 -11.1°
